User: anonymous   Login
Location: Medlow Airstrip Trail, Medlow Bath NSW 2780, Australia
(33.6682°S, 150.3233°E)
Time: 15:01:40
(UTC+10:00)
Language:

Explorer 11/Cluster Stage 4 - Orbit

View from above orbital plane
View from above orbital plane
View from above satellite
View from above satellite

Ground track
Ground track

The orbit data is extracted from the following two-line orbital elements,

1   107U 61013A   19264.44354401  .00000260  00000-0  14547-4 0  9999
2   107  28.7868 266.2367 0547395 149.3004 214.0802 14.08825238927663
Epoch (UTC): 21 September 2019 10:38:42
Eccentricity: 0.0547395
inclination: 28.7868°
perigee height: 467 km
apogee height: 1260 km
right ascension of ascending node: 266.2367°
argument of perigee: 149.3004°
revolutions per day: 14.08825238
mean anomaly at epoch: 214.0802°
orbit number at epoch: 92766

The dashed part of the orbit path shows where the satellite is in the earth's shadow,  

DLR